Home > Weather > Watford > Past weeks

Flag for United Kingdom Past Weather in Watford, England, United Kingdom — Yesterday and Last 2 Weeks

Now
54 °F

Clear.


Feels Like: 54 °F
Forecast: 54 / 74 °F
Wind: 1 mph from Southwest

Location: Northolt

Current Time: Aug 30, 2016 at 2:30:33 AM

Latest Report: Aug 30, 2016 at 1:50 AM


Visibility: N/A

Pressure: 30.27 "Hg

Humidity: 94%

Dew Point: 52 °F

Location of WatfordLocation

Past Weather in Watford — Graph

°F

Watford Temperature Yesterday

Maximum temperature yesterday: 73 °F (at 2:50 PM)
Minimum temperature yesterday: 57 °F (at 11:50 PM)
Average temperature yesterday: 65 °F

High & Low Weather Summary for the Past Weeks

 TemperatureHumidityPressure
High90 °F (Aug 24, 3:50 PM)100% (Aug 16, 5:50 AM)30.30 "Hg (Aug 16, 5:50 AM)
Low50 °F (Aug 15, 4:50 AM)28% (Aug 26, 3:50 PM)29.65 "Hg (Aug 19, 4:50 PM)
Average67 °F72%30.00 "Hg
* Reported Aug 15 12:50 AM — Aug 30 12:50 AM, Watford, Weather by CustomWeather, © 2016

Note: Actual official high and low records may vary slightly from our data, if they occured in-between our weather recording intervals... More about our weather records

Advertising

Watford Weather History for the Previous 24 Hours

Scroll right to see more
 ConditionsComfort  
Time TempWeatherWind HumidityBarometerVisibility
12:50 AM
Tue, Aug 30
57 °FPassing clouds.No wind88%30.27 "HgN/A
11:50 PM
Mon, Aug 29
57 °FClear.2 mph88%30.27 "Hg10 mi
10:50 PM59 °FClear.2 mph77%30.24 "Hg10 mi
9:50 PM61 °FClear.2 mph77%30.24 "Hg10 mi
8:50 PM63 °FClear.2 mph68%30.24 "Hg10 mi
7:50 PM68 °FSunny.3 mph53%30.21 "Hg10 mi
6:50 PM72 °FSunny.7 mph47%30.21 "Hg10 mi
5:50 PM73 °FSunny.7 mph44%30.21 "Hg10 mi
4:50 PM73 °FSunny.8 mph44%30.18 "Hg10 mi
3:50 PM73 °FSunny.10 mph41%30.18 "Hg10 mi
2:50 PM73 °FScattered clouds.7 mph44%30.18 "HgN/A
1:50 PM72 °FScattered clouds.5 mph53%30.18 "HgN/A
12:50 PM72 °FScattered clouds.6 mph53%30.18 "HgN/A
11:50 AM66 °FBroken clouds.6 mph68%30.18 "HgN/A
10:50 AM66 °FBroken clouds.7 mph68%30.18 "HgN/A
9:50 AM64 °FBroken clouds.6 mph78%30.18 "HgN/A
8:50 AM63 °FPartly sunny.5 mph77%30.15 "HgN/A
7:50 AM59 °FScattered clouds.3 mph88%30.15 "HgN/A
6:50 AM59 °FPassing clouds.1 mph88%30.12 "HgN/A
5:50 AM61 °FPassing clouds.7 mph77%30.09 "HgN/A
4:50 AM59 °FPassing clouds.5 mph94%30.09 "HgN/A
3:50 AM59 °FPassing clouds.2 mph94%30.07 "HgN/A
2:50 AM61 °FPassing clouds.9 mph88%30.04 "HgN/A
Weather by CustomWeather, © 2016

See weather overviewHow to use our weather pages